owner,sensor,date,latitude,longitude,air_pressure(mBar),qcFlag 
WAVCIS,ioos:station:WAVCIS:CSI03:1,2008-12-01T00:00:00Z,29.4412,-92.0613,1006.194,11111222 
WAVCIS,ioos:station:WAVCIS:CSI03:1,2008-12-01T01:00:00Z,29.4412,-92.0613,1007.74,11111222 
WAVCIS,ioos:station:WAVCIS:CSI03:1,2008-12-01T02:00:00Z,29.4412,-92.0613,1008.4,11111222 
WAVCIS,ioos:station:WAVCIS:CSI03:1,2008-12-01T03:00:00Z,29.4412,-92.0613,1009.28,11111222 
WAVCIS,ioos:station:WAVCIS:CSI03:1,2008-12-01T04:00:00Z,29.4412,-92.0613,1010.24,11111222 
WAVCIS,ioos:station:WAVCIS:CSI03:1,2008-12-01T05:00:00Z,29.4412,-92.0613,1010.81,11111222 
WAVCIS,ioos:station:WAVCIS:CSI03:1,2008-12-01T06:00:00Z,29.4412,-92.0613,1010.89,11111222 
WAVCIS,ioos:station:WAVCIS:CSI03:1,2008-12-01T07:00:00Z,29.4412,-92.0613,1010.98,11111222 
WAVCIS,ioos:station:WAVCIS:CSI03:1,2008-12-01T08:00:00Z,29.4412,-92.0613,1011.63,11111222 
WAVCIS,ioos:station:WAVCIS:CSI03:1,2008-12-01T09:00:00Z,29.4412,-92.0613,1012.0,11111222 
WAVCIS,ioos:station:WAVCIS:CSI03:1,2008-12-01T10:00:00Z,29.4412,-92.0613,1012.64,11111222 
WAVCIS,ioos:station:WAVCIS:CSI03:1,2008-12-01T11:00:00Z,29.4412,-92.0613,1012.29,11111222 
WAVCIS,ioos:station:WAVCIS:CSI03:1,2008-12-01T12:00:00Z,29.4412,-92.0613,1013.19,11111222 
WAVCIS,ioos:station:WAVCIS:CSI03:1,2008-12-01T13:00:00Z,29.4412,-92.0613,1013.66,11111222 
WAVCIS,ioos:station:WAVCIS:CSI03:1,2008-12-01T14:00:00Z,29.4412,-92.0613,1014.04,11111222 
WAVCIS,ioos:station:WAVCIS:CSI03:1,2008-12-01T15:00:00Z,29.4412,-92.0613,1015.26,11111222 
WAVCIS,ioos:station:WAVCIS:CSI03:1,2008-12-01T16:00:00Z,29.4412,-92.0613,1016.31,11111222 
WAVCIS,ioos:station:WAVCIS:CSI03:1,2008-12-01T17:00:00Z,29.4412,-92.0613,1016.96,11111222 
WAVCIS,ioos:station:WAVCIS:CSI03:1,2008-12-01T18:00:00Z,29.4412,-92.0613,1016.65,11111222 
WAVCIS,ioos:station:WAVCIS:CSI03:1,2008-12-01T19:00:00Z,29.4412,-92.0613,1016.47,11111222 
WAVCIS,ioos:station:WAVCIS:CSI03:1,2008-12-01T20:00:00Z,29.4412,-92.0613,1016.43,11111222 
WAVCIS,ioos:station:WAVCIS:CSI03:1,2008-12-01T21:00:00Z,29.4412,-92.0613,1016.93,11111222 
WAVCIS,ioos:station:WAVCIS:CSI03:1,2008-12-01T22:00:00Z,29.4412,-92.0613,1017.51,11111222 
WAVCIS,ioos:station:WAVCIS:CSI03:1,2008-12-01T23:00:00Z,29.4412,-92.0613,1018.5,11111222 
WAVCIS,ioos:station:WAVCIS:CSI03:1,2008-12-02T00:00:00Z,29.4412,-92.0613,1020.07,11111222 
WAVCIS,ioos:station:WAVCIS:CSI03:1,2008-12-02T01:00:00Z,29.4412,-92.0613,1021.26,11111222 
WAVCIS,ioos:station:WAVCIS:CSI03:1,2008-12-02T02:00:00Z,29.4412,-92.0613,1022.32,11111222 
WAVCIS,ioos:station:WAVCIS:CSI03:1,2008-12-02T03:00:00Z,29.4412,-92.0613,1023.01,11111222 
WAVCIS,ioos:station:WAVCIS:CSI03:1,2008-12-02T04:00:00Z,29.4412,-92.0613,1023.6,11111222 
WAVCIS,ioos:station:WAVCIS:CSI03:1,2008-12-02T05:00:00Z,29.4412,-92.0613,1024.27,11111222 
WAVCIS,ioos:station:WAVCIS:CSI03:1,2008-12-02T06:00:00Z,29.4412,-92.0613,1024.59,11111222 
WAVCIS,ioos:station:WAVCIS:CSI03:1,2008-12-02T07:00:00Z,29.4412,-92.0613,1024.58,11111222 
WAVCIS,ioos:station:WAVCIS:CSI03:1,2008-12-02T08:00:00Z,29.4412,-92.0613,1024.5,11111222 
WAVCIS,ioos:station:WAVCIS:CSI03:1,2008-12-02T09:00:00Z,29.4412,-92.0613,1024.67,11111222 
WAVCIS,ioos:station:WAVCIS:CSI03:1,2008-12-02T10:00:00Z,29.4412,-92.0613,1024.48,11111222 
WAVCIS,ioos:station:WAVCIS:CSI03:1,2008-12-02T11:00:00Z,29.4412,-92.0613,1024.41,11111222 
WAVCIS,ioos:station:WAVCIS:CSI03:1,2008-12-02T12:00:00Z,29.4412,-92.0613,1024.4,11111222 
WAVCIS,ioos:station:WAVCIS:CSI03:1,2008-12-02T13:00:00Z,29.4412,-92.0613,1024.74,11111222 
WAVCIS,ioos:station:WAVCIS:CSI03:1,2008-12-02T14:00:00Z,29.4412,-92.0613,1025.01,11111222 
WAVCIS,ioos:station:WAVCIS:CSI03:1,2008-12-02T15:00:00Z,29.4412,-92.0613,1025.46,11111222 
WAVCIS,ioos:station:WAVCIS:CSI03:1,2008-12-02T16:00:00Z,29.4412,-92.0613,1025.81,11111222 
WAVCIS,ioos:station:WAVCIS:CSI03:1,2008-12-02T17:00:00Z,29.4412,-92.0613,1025.3,11111222 
WAVCIS,ioos:station:WAVCIS:CSI03:1,2008-12-02T18:00:00Z,29.4412,-92.0613,1024.33,11111222 
WAVCIS,ioos:station:WAVCIS:CSI03:1,2008-12-02T19:00:00Z,29.4412,-92.0613,1023.54,11111222 
WAVCIS,ioos:station:WAVCIS:CSI03:1,2008-12-02T20:00:00Z,29.4412,-92.0613,1022.81,11111222 
WAVCIS,ioos:station:WAVCIS:CSI03:1,2008-12-02T21:00:00Z,29.4412,-92.0613,1022.48,11111222 
WAVCIS,ioos:station:WAVCIS:CSI03:1,2008-12-02T22:00:00Z,29.4412,-92.0613,1022.05,11111222 
WAVCIS,ioos:station:WAVCIS:CSI03:1,2008-12-02T23:00:00Z,29.4412,-92.0613,1021.63,11111222 
WAVCIS,ioos:station:WAVCIS:CSI03:1,2008-12-03T00:00:00Z,29.4412,-92.0613,1021.23,11111222 
WAVCIS,ioos:station:WAVCIS:CSI03:1,2008-12-03T01:00:00Z,29.4412,-92.0613,1021.04,11111222 
WAVCIS,ioos:station:WAVCIS:CSI03:1,2008-12-03T02:00:00Z,29.4412,-92.0613,1020.93,11111222 
WAVCIS,ioos:station:WAVCIS:CSI03:1,2008-12-03T03:00:00Z,29.4412,-92.0613,1020.47,11111222 
WAVCIS,ioos:station:WAVCIS:CSI03:1,2008-12-03T04:00:00Z,29.4412,-92.0613,1020.01,11111222 
WAVCIS,ioos:station:WAVCIS:CSI03:1,2008-12-03T05:00:00Z,29.4412,-92.0613,1020.03,11111222 
WAVCIS,ioos:station:WAVCIS:CSI03:1,2008-12-03T06:00:00Z,29.4412,-92.0613,1019.16,11111222 
WAVCIS,ioos:station:WAVCIS:CSI03:1,2008-12-03T07:00:00Z,29.4412,-92.0613,1018.51,11111222 
WAVCIS,ioos:station:WAVCIS:CSI03:1,2008-12-03T08:00:00Z,29.4412,-92.0613,1018.32,11111222 
WAVCIS,ioos:station:WAVCIS:CSI03:1,2008-12-03T09:00:00Z,29.4412,-92.0613,1018.09,11111222 
WAVCIS,ioos:station:WAVCIS:CSI03:1,2008-12-03T10:00:00Z,29.4412,-92.0613,1017.67,11111222 
WAVCIS,ioos:station:WAVCIS:CSI03:1,2008-12-03T11:00:00Z,29.4412,-92.0613,1017.6,11111222 
WAVCIS,ioos:station:WAVCIS:CSI03:1,2008-12-03T12:00:00Z,29.4412,-92.0613,1017.92,11111222 
WAVCIS,ioos:station:WAVCIS:CSI03:1,2008-12-03T13:00:00Z,29.4412,-92.0613,1017.79,11111222 
WAVCIS,ioos:station:WAVCIS:CSI03:1,2008-12-03T14:00:00Z,29.4412,-92.0613,1018.08,11111222 
WAVCIS,ioos:station:WAVCIS:CSI03:1,2008-12-03T15:00:00Z,29.4412,-92.0613,1018.59,11111222 
WAVCIS,ioos:station:WAVCIS:CSI03:1,2008-12-03T16:00:00Z,29.4412,-92.0613,1019.03,11111222 
WAVCIS,ioos:station:WAVCIS:CSI03:1,2008-12-03T17:00:00Z,29.4412,-92.0613,1018.65,11111222 
WAVCIS,ioos:station:WAVCIS:CSI03:1,2008-12-03T18:00:00Z,29.4412,-92.0613,1017.89,11111222 
WAVCIS,ioos:station:WAVCIS:CSI03:1,2008-12-03T19:00:00Z,29.4412,-92.0613,1016.78,11111222 
WAVCIS,ioos:station:WAVCIS:CSI03:1,2008-12-03T20:00:00Z,29.4412,-92.0613,1016.24,11111222 
WAVCIS,ioos:station:WAVCIS:CSI03:1,2008-12-03T21:00:00Z,29.4412,-92.0613,1015.97,11111222 
WAVCIS,ioos:station:WAVCIS:CSI03:1,2008-12-03T22:00:00Z,29.4412,-92.0613,1015.72,11111222 
WAVCIS,ioos:station:WAVCIS:CSI03:1,2008-12-03T23:00:00Z,29.4412,-92.0613,1015.83,11111222 
WAVCIS,ioos:station:WAVCIS:CSI03:1,2008-12-04T00:00:00Z,29.4412,-92.0613,1015.62,11111222 
WAVCIS,ioos:station:WAVCIS:CSI03:1,2008-12-04T01:00:00Z,29.4412,-92.0613,1015.81,11111222 
WAVCIS,ioos:station:WAVCIS:CSI03:1,2008-12-04T02:00:00Z,29.4412,-92.0613,1016.1,11111222 
WAVCIS,ioos:station:WAVCIS:CSI03:1,2008-12-04T03:00:00Z,29.4412,-92.0613,1015.8,11111222 
WAVCIS,ioos:station:WAVCIS:CSI03:1,2008-12-04T04:00:00Z,29.4412,-92.0613,1015.58,11111222 
WAVCIS,ioos:station:WAVCIS:CSI03:1,2008-12-04T05:00:00Z,29.4412,-92.0613,1015.13,11111222 
WAVCIS,ioos:station:WAVCIS:CSI03:1,2008-12-04T06:00:00Z,29.4412,-92.0613,1015.21,11111222 
WAVCIS,ioos:station:WAVCIS:CSI03:1,2008-12-04T07:00:00Z,29.4412,-92.0613,1014.72,11111222 
WAVCIS,ioos:station:WAVCIS:CSI03:1,2008-12-04T08:00:00Z,29.4412,-92.0613,1014.66,11111222 
WAVCIS,ioos:station:WAVCIS:CSI03:1,2008-12-04T09:00:00Z,29.4412,-92.0613,1014.95,11111222 
WAVCIS,ioos:station:WAVCIS:CSI03:1,2008-12-04T10:00:00Z,29.4412,-92.0613,1014.59,11111222 
WAVCIS,ioos:station:WAVCIS:CSI03:1,2008-12-04T11:00:00Z,29.4412,-92.0613,1015.52,11111222 
WAVCIS,ioos:station:WAVCIS:CSI03:1,2008-12-04T12:00:00Z,29.4412,-92.0613,1016.22,11111222 
WAVCIS,ioos:station:WAVCIS:CSI03:1,2008-12-04T13:00:00Z,29.4412,-92.0613,1017.07,11111222 
WAVCIS,ioos:station:WAVCIS:CSI03:1,2008-12-04T14:00:00Z,29.4412,-92.0613,1017.72,11111222 
WAVCIS,ioos:station:WAVCIS:CSI03:1,2008-12-04T15:00:00Z,29.4412,-92.0613,1018.71,11111222 
WAVCIS,ioos:station:WAVCIS:CSI03:1,2008-12-04T16:00:00Z,29.4412,-92.0613,1019.45,11111222 
WAVCIS,ioos:station:WAVCIS:CSI03:1,2008-12-04T17:00:00Z,29.4412,-92.0613,1019.9,11111222 
WAVCIS,ioos:station:WAVCIS:CSI03:1,2008-12-04T18:00:00Z,29.4412,-92.0613,1019.58,11111222 
WAVCIS,ioos:station:WAVCIS:CSI03:1,2008-12-04T19:00:00Z,29.4412,-92.0613,1019.52,11111222 
WAVCIS,ioos:station:WAVCIS:CSI03:1,2008-12-04T20:00:00Z,29.4412,-92.0613,1019.57,11111222 
WAVCIS,ioos:station:WAVCIS:CSI03:1,2008-12-04T21:00:00Z,29.4412,-92.0613,1019.58,11111222 
WAVCIS,ioos:station:WAVCIS:CSI03:1,2008-12-04T22:00:00Z,29.4412,-92.0613,1020.19,11111222 
WAVCIS,ioos:station:WAVCIS:CSI03:1,2008-12-04T23:00:00Z,29.4412,-92.0613,1020.91,11111222 
WAVCIS,ioos:station:WAVCIS:CSI03:1,2008-12-05T00:00:00Z,29.4412,-92.0613,1021.58,11111222 
WAVCIS,ioos:station:WAVCIS:CSI03:1,2008-12-05T01:00:00Z,29.4412,-92.0613,1022.52,11111222 
WAVCIS,ioos:station:WAVCIS:CSI03:1,2008-12-05T02:00:00Z,29.4412,-92.0613,1022.97,11111222 
WAVCIS,ioos:station:WAVCIS:CSI03:1,2008-12-05T03:00:00Z,29.4412,-92.0613,1023.39,11111222 
WAVCIS,ioos:station:WAVCIS:CSI03:1,2008-12-05T04:00:00Z,29.4412,-92.0613,1024.18,11111222 
WAVCIS,ioos:station:WAVCIS:CSI03:1,2008-12-05T05:00:00Z,29.4412,-92.0613,1024.32,11111222 
WAVCIS,ioos:station:WAVCIS:CSI03:1,2008-12-05T06:00:00Z,29.4412,-92.0613,1024.34,11111222 
WAVCIS,ioos:station:WAVCIS:CSI03:1,2008-12-05T07:00:00Z,29.4412,-92.0613,1024.08,11111222 
WAVCIS,ioos:station:WAVCIS:CSI03:1,2008-12-05T08:00:00Z,29.4412,-92.0613,1024.38,11111222 
WAVCIS,ioos:station:WAVCIS:CSI03:1,2008-12-05T09:00:00Z,29.4412,-92.0613,1023.57,11111222 
WAVCIS,ioos:station:WAVCIS:CSI03:1,2008-12-05T10:00:00Z,29.4412,-92.0613,1024.03,11111222 
WAVCIS,ioos:station:WAVCIS:CSI03:1,2008-12-05T11:00:00Z,29.4412,-92.0613,1023.79,11111222 
WAVCIS,ioos:station:WAVCIS:CSI03:1,2008-12-05T12:00:00Z,29.4412,-92.0613,1023.93,11111222 
WAVCIS,ioos:station:WAVCIS:CSI03:1,2008-12-05T13:00:00Z,29.4412,-92.0613,1025.01,11111222 
WAVCIS,ioos:station:WAVCIS:CSI03:1,2008-12-05T14:00:00Z,29.4412,-92.0613,1025.37,11111222 
WAVCIS,ioos:station:WAVCIS:CSI03:1,2008-12-05T15:00:00Z,29.4412,-92.0613,1026.0,11111222 
WAVCIS,ioos:station:WAVCIS:CSI03:1,2008-12-05T16:00:00Z,29.4412,-92.0613,1025.98,11111222 
WAVCIS,ioos:station:WAVCIS:CSI03:1,2008-12-05T17:00:00Z,29.4412,-92.0613,1025.65,11111222 
WAVCIS,ioos:station:WAVCIS:CSI03:1,2008-12-05T18:00:00Z,29.4412,-92.0613,1025.15,11111222 
WAVCIS,ioos:station:WAVCIS:CSI03:1,2008-12-05T19:00:00Z,29.4412,-92.0613,1023.82,11111222 
WAVCIS,ioos:station:WAVCIS:CSI03:1,2008-12-05T20:00:00Z,29.4412,-92.0613,1022.89,11111222 
WAVCIS,ioos:station:WAVCIS:CSI03:1,2008-12-05T21:00:00Z,29.4412,-92.0613,1021.88,11111222 
WAVCIS,ioos:station:WAVCIS:CSI03:1,2008-12-05T22:00:00Z,29.4412,-92.0613,1021.43,11111222 
WAVCIS,ioos:station:WAVCIS:CSI03:1,2008-12-05T23:00:00Z,29.4412,-92.0613,1021.08,11111222 
WAVCIS,ioos:station:WAVCIS:CSI03:1,2008-12-06T00:00:00Z,29.4412,-92.0613,1021.71,11111222 
WAVCIS,ioos:station:WAVCIS:CSI03:1,2008-12-06T01:00:00Z,29.4412,-92.0613,1021.33,11111222 
WAVCIS,ioos:station:WAVCIS:CSI03:1,2008-12-06T02:00:00Z,29.4412,-92.0613,1021.43,11111222 
WAVCIS,ioos:station:WAVCIS:CSI03:1,2008-12-06T03:00:00Z,29.4412,-92.0613,1021.72,11111222 
WAVCIS,ioos:station:WAVCIS:CSI03:1,2008-12-06T04:00:00Z,29.4412,-92.0613,1021.27,11111222 
WAVCIS,ioos:station:WAVCIS:CSI03:1,2008-12-06T05:00:00Z,29.4412,-92.0613,1021.48,11111222 
WAVCIS,ioos:station:WAVCIS:CSI03:1,2008-12-06T06:00:00Z,29.4412,-92.0613,1020.45,11111222 
WAVCIS,ioos:station:WAVCIS:CSI03:1,2008-12-06T07:00:00Z,29.4412,-92.0613,1020.48,11111222 
WAVCIS,ioos:station:WAVCIS:CSI03:1,2008-12-06T08:00:00Z,29.4412,-92.0613,1020.16,11111222 
WAVCIS,ioos:station:WAVCIS:CSI03:1,2008-12-06T09:00:00Z,29.4412,-92.0613,1019.24,11111222 
WAVCIS,ioos:station:WAVCIS:CSI03:1,2008-12-06T10:00:00Z,29.4412,-92.0613,1018.68,11111222 
WAVCIS,ioos:station:WAVCIS:CSI03:1,2008-12-06T11:00:00Z,29.4412,-92.0613,1018.74,11111222 
WAVCIS,ioos:station:WAVCIS:CSI03:1,2008-12-06T12:00:00Z,29.4412,-92.0613,1019.03,11111222 
WAVCIS,ioos:station:WAVCIS:CSI03:1,2008-12-06T13:00:00Z,29.4412,-92.0613,1019.45,11111222 
WAVCIS,ioos:station:WAVCIS:CSI03:1,2008-12-06T14:00:00Z,29.4412,-92.0613,1019.62,11111222 
WAVCIS,ioos:station:WAVCIS:CSI03:1,2008-12-06T15:00:00Z,29.4412,-92.0613,1020.21,11111222 
WAVCIS,ioos:station:WAVCIS:CSI03:1,2008-12-06T16:00:00Z,29.4412,-92.0613,1020.91,11111222 
WAVCIS,ioos:station:WAVCIS:CSI03:1,2008-12-06T17:00:00Z,29.4412,-92.0613,1020.84,11111222 
WAVCIS,ioos:station:WAVCIS:CSI03:1,2008-12-06T18:00:00Z,29.4412,-92.0613,1019.76,11111222 
WAVCIS,ioos:station:WAVCIS:CSI03:1,2008-12-06T19:00:00Z,29.4412,-92.0613,1018.68,11111222 
WAVCIS,ioos:station:WAVCIS:CSI03:1,2008-12-06T20:00:00Z,29.4412,-92.0613,1018.46,11111222 
WAVCIS,ioos:station:WAVCIS:CSI03:1,2008-12-06T21:00:00Z,29.4412,-92.0613,1018.3,11111222 
WAVCIS,ioos:station:WAVCIS:CSI03:1,2008-12-06T22:00:00Z,29.4412,-92.0613,1018.27,11111222 
WAVCIS,ioos:station:WAVCIS:CSI03:1,2008-12-06T23:00:00Z,29.4412,-92.0613,1018.82,11111222 
WAVCIS,ioos:station:WAVCIS:CSI03:1,2008-12-07T00:00:00Z,29.4412,-92.0613,1019.42,11111222 
WAVCIS,ioos:station:WAVCIS:CSI03:1,2008-12-07T01:00:00Z,29.4412,-92.0613,1020.21,11111222 
WAVCIS,ioos:station:WAVCIS:CSI03:1,2008-12-07T02:00:00Z,29.4412,-92.0613,1020.56,11111222 
WAVCIS,ioos:station:WAVCIS:CSI03:1,2008-12-07T03:00:00Z,29.4412,-92.0613,1020.69,11111222 
WAVCIS,ioos:station:WAVCIS:CSI03:1,2008-12-07T04:00:00Z,29.4412,-92.0613,1021.07,11111222 
WAVCIS,ioos:station:WAVCIS:CSI03:1,2008-12-07T05:00:00Z,29.4412,-92.0613,1021.33,11111222 
WAVCIS,ioos:station:WAVCIS:CSI03:1,2008-12-07T06:00:00Z,29.4412,-92.0613,1021.26,11111222 
WAVCIS,ioos:station:WAVCIS:CSI03:1,2008-12-07T07:00:00Z,29.4412,-92.0613,1021.71,11111222 
WAVCIS,ioos:station:WAVCIS:CSI03:1,2008-12-07T08:00:00Z,29.4412,-92.0613,1021.93,11111222 
WAVCIS,ioos:station:WAVCIS:CSI03:1,2008-12-07T09:00:00Z,29.4412,-92.0613,1021.9,11111222 
WAVCIS,ioos:station:WAVCIS:CSI03:1,2008-12-07T10:00:00Z,29.4412,-92.0613,1021.96,11111222 
WAVCIS,ioos:station:WAVCIS:CSI03:1,2008-12-07T11:00:00Z,29.4412,-92.0613,1022.17,11111222 
WAVCIS,ioos:station:WAVCIS:CSI03:1,2008-12-07T12:00:00Z,29.4412,-92.0613,1022.91,11111222 
WAVCIS,ioos:station:WAVCIS:CSI03:1,2008-12-07T13:00:00Z,29.4412,-92.0613,1023.66,11111222 
WAVCIS,ioos:station:WAVCIS:CSI03:1,2008-12-07T14:00:00Z,29.4412,-92.0613,1024.34,11111222 
WAVCIS,ioos:station:WAVCIS:CSI03:1,2008-12-07T15:00:00Z,29.4412,-92.0613,1024.75,11111222 
WAVCIS,ioos:station:WAVCIS:CSI03:1,2008-12-07T16:00:00Z,29.4412,-92.0613,1025.01,11111222 
WAVCIS,ioos:station:WAVCIS:CSI03:1,2008-12-07T17:00:00Z,29.4412,-92.0613,1024.47,11111222 
WAVCIS,ioos:station:WAVCIS:CSI03:1,2008-12-07T18:00:00Z,29.4412,-92.0613,1023.51,11111222 
WAVCIS,ioos:station:WAVCIS:CSI03:1,2008-12-07T19:00:00Z,29.4412,-92.0613,1022.67,11111222 
WAVCIS,ioos:station:WAVCIS:CSI03:1,2008-12-07T20:00:00Z,29.4412,-92.0613,1022.05,11111222 
WAVCIS,ioos:station:WAVCIS:CSI03:1,2008-12-07T21:00:00Z,29.4412,-92.0613,1021.72,11111222 
WAVCIS,ioos:station:WAVCIS:CSI03:1,2008-12-07T22:00:00Z,29.4412,-92.0613,1021.65,11111222 
WAVCIS,ioos:station:WAVCIS:CSI03:1,2008-12-07T23:00:00Z,29.4412,-92.0613,1021.51,11111222 
WAVCIS,ioos:station:WAVCIS:CSI03:1,2008-12-08T00:00:00Z,29.4412,-92.0613,1021.24,11111222 
WAVCIS,ioos:station:WAVCIS:CSI03:1,2008-12-08T01:00:00Z,29.4412,-92.0613,1020.99,11111222 
WAVCIS,ioos:station:WAVCIS:CSI03:1,2008-12-08T02:00:00Z,29.4412,-92.0613,1020.97,11111222 
WAVCIS,ioos:station:WAVCIS:CSI03:1,2008-12-08T03:00:00Z,29.4412,-92.0613,1020.63,11111222 
WAVCIS,ioos:station:WAVCIS:CSI03:1,2008-12-08T04:00:00Z,29.4412,-92.0613,1020.22,11111222 
WAVCIS,ioos:station:WAVCIS:CSI03:1,2008-12-08T05:00:00Z,29.4412,-92.0613,1020.46,11111222 
WAVCIS,ioos:station:WAVCIS:CSI03:1,2008-12-08T06:00:00Z,29.4412,-92.0613,1019.81,11111222 
WAVCIS,ioos:station:WAVCIS:CSI03:1,2008-12-08T07:00:00Z,29.4412,-92.0613,1019.87,11111222 
WAVCIS,ioos:station:WAVCIS:CSI03:1,2008-12-08T08:00:00Z,29.4412,-92.0613,1019.02,11111222 
WAVCIS,ioos:station:WAVCIS:CSI03:1,2008-12-08T09:00:00Z,29.4412,-92.0613,1018.42,11111222 
WAVCIS,ioos:station:WAVCIS:CSI03:1,2008-12-08T10:00:00Z,29.4412,-92.0613,1018.13,11111222 
WAVCIS,ioos:station:WAVCIS:CSI03:1,2008-12-08T11:00:00Z,29.4412,-92.0613,1018.0,11111222 
WAVCIS,ioos:station:WAVCIS:CSI03:1,2008-12-08T12:00:00Z,29.4412,-92.0613,1018.25,11111222 
WAVCIS,ioos:station:WAVCIS:CSI03:1,2008-12-08T13:00:00Z,29.4412,-92.0613,1018.04,11111222 
WAVCIS,ioos:station:WAVCIS:CSI03:1,2008-12-08T14:00:00Z,29.4412,-92.0613,1017.45,11111222 
WAVCIS,ioos:station:WAVCIS:CSI03:1,2008-12-08T15:00:00Z,29.4412,-92.0613,1017.76,11111222 
WAVCIS,ioos:station:WAVCIS:CSI03:1,2008-12-08T16:00:00Z,29.4412,-92.0613,1017.57,11111222 
WAVCIS,ioos:station:WAVCIS:CSI03:1,2008-12-08T17:00:00Z,29.4412,-92.0613,1017.33,11111222 
WAVCIS,ioos:station:WAVCIS:CSI03:1,2008-12-08T18:00:00Z,29.4412,-92.0613,1015.74,11111222 
WAVCIS,ioos:station:WAVCIS:CSI03:1,2008-12-08T19:00:00Z,29.4412,-92.0613,1014.41,11111222 
WAVCIS,ioos:station:WAVCIS:CSI03:1,2008-12-08T20:00:00Z,29.4412,-92.0613,1013.97,11111222 
WAVCIS,ioos:station:WAVCIS:CSI03:1,2008-12-08T21:00:00Z,29.4412,-92.0613,1013.31,11111222 
WAVCIS,ioos:station:WAVCIS:CSI03:1,2008-12-08T22:00:00Z,29.4412,-92.0613,1013.24,11111222 
WAVCIS,ioos:station:WAVCIS:CSI03:1,2008-12-08T23:00:00Z,29.4412,-92.0613,1011.99,11111222 
WAVCIS,ioos:station:WAVCIS:CSI03:1,2008-12-09T00:00:00Z,29.4412,-92.0613,1011.78,11111222 
WAVCIS,ioos:station:WAVCIS:CSI03:1,2008-12-09T01:00:00Z,29.4412,-92.0613,1011.79,11111222 
WAVCIS,ioos:station:WAVCIS:CSI03:1,2008-12-09T02:00:00Z,29.4412,-92.0613,1011.56,11111222 
WAVCIS,ioos:station:WAVCIS:CSI03:1,2008-12-09T03:00:00Z,29.4412,-92.0613,1011.57,11111222 
WAVCIS,ioos:station:WAVCIS:CSI03:1,2008-12-09T04:00:00Z,29.4412,-92.0613,1011.0,11111222 
WAVCIS,ioos:station:WAVCIS:CSI03:1,2008-12-09T05:00:00Z,29.4412,-92.0613,1010.08,11111222 
WAVCIS,ioos:station:WAVCIS:CSI03:1,2008-12-09T06:00:00Z,29.4412,-92.0613,1009.32,11111222 
WAVCIS,ioos:station:WAVCIS:CSI03:1,2008-12-09T07:00:00Z,29.4412,-92.0613,1009.37,11111222 
WAVCIS,ioos:station:WAVCIS:CSI03:1,2008-12-09T08:00:00Z,29.4412,-92.0613,1008.77,11111222 
WAVCIS,ioos:station:WAVCIS:CSI03:1,2008-12-09T09:00:00Z,29.4412,-92.0613,1008.15,11111222 
WAVCIS,ioos:station:WAVCIS:CSI03:1,2008-12-09T10:00:00Z,29.4412,-92.0613,1008.56,11111222 
WAVCIS,ioos:station:WAVCIS:CSI03:1,2008-12-09T11:00:00Z,29.4412,-92.0613,1008.48,11111222 
WAVCIS,ioos:station:WAVCIS:CSI03:1,2008-12-09T12:00:00Z,29.4412,-92.0613,1008.74,11111222 
WAVCIS,ioos:station:WAVCIS:CSI03:1,2008-12-09T13:00:00Z,29.4412,-92.0613,1008.12,11111222 
WAVCIS,ioos:station:WAVCIS:CSI03:1,2008-12-09T14:00:00Z,29.4412,-92.0613,1008.9,11111222 
WAVCIS,ioos:station:WAVCIS:CSI03:1,2008-12-09T15:00:00Z,29.4412,-92.0613,1009.17,11111222 
WAVCIS,ioos:station:WAVCIS:CSI03:1,2008-12-09T16:00:00Z,29.4412,-92.0613,1009.01,11111222 
WAVCIS,ioos:station:WAVCIS:CSI03:1,2008-12-09T17:00:00Z,29.4412,-92.0613,1008.49,11111222 
WAVCIS,ioos:station:WAVCIS:CSI03:1,2008-12-09T18:00:00Z,29.4412,-92.0613,1008.4,11111222 
WAVCIS,ioos:station:WAVCIS:CSI03:1,2008-12-09T19:00:00Z,29.4412,-92.0613,1007.54,11111222 
WAVCIS,ioos:station:WAVCIS:CSI03:1,2008-12-09T20:00:00Z,29.4412,-92.0613,1006.315,11111222 
WAVCIS,ioos:station:WAVCIS:CSI03:1,2008-12-09T21:00:00Z,29.4412,-92.0613,1005.184,11111222 
WAVCIS,ioos:station:WAVCIS:CSI03:1,2008-12-09T22:00:00Z,29.4412,-92.0613,1004.717,11111222 
WAVCIS,ioos:station:WAVCIS:CSI03:1,2008-12-09T23:00:00Z,29.4412,-92.0613,1004.724,11111222 
WAVCIS,ioos:station:WAVCIS:CSI03:1,2008-12-10T00:00:00Z,29.4412,-92.0613,1004.475,11111222 
WAVCIS,ioos:station:WAVCIS:CSI03:1,2008-12-10T01:00:00Z,29.4412,-92.0613,1004.836,11111222 
WAVCIS,ioos:station:WAVCIS:CSI03:1,2008-12-10T02:00:00Z,29.4412,-92.0613,1005.786,11111222 
WAVCIS,ioos:station:WAVCIS:CSI03:1,2008-12-10T03:00:00Z,29.4412,-92.0613,1006.228,11111222 
WAVCIS,ioos:station:WAVCIS:CSI03:1,2008-12-10T04:00:00Z,29.4412,-92.0613,1006.149,11111222 
WAVCIS,ioos:station:WAVCIS:CSI03:1,2008-12-10T05:00:00Z,29.4412,-92.0613,1007.5,11111222 
WAVCIS,ioos:station:WAVCIS:CSI03:1,2008-12-10T06:00:00Z,29.4412,-92.0613,1008.2,11111222 
WAVCIS,ioos:station:WAVCIS:CSI03:1,2008-12-10T07:00:00Z,29.4412,-92.0613,1008.4,11111222 
WAVCIS,ioos:station:WAVCIS:CSI03:1,2008-12-10T08:00:00Z,29.4412,-92.0613,1008.71,11111222 
WAVCIS,ioos:station:WAVCIS:CSI03:1,2008-12-10T09:00:00Z,29.4412,-92.0613,1008.98,11111222 
WAVCIS,ioos:station:WAVCIS:CSI03:1,2008-12-10T10:00:00Z,29.4412,-92.0613,1009.52,11111222 
WAVCIS,ioos:station:WAVCIS:CSI03:1,2008-12-10T11:00:00Z,29.4412,-92.0613,1009.15,11111222 
WAVCIS,ioos:station:WAVCIS:CSI03:1,2008-12-10T12:00:00Z,29.4412,-92.0613,1009.87,11111222 
WAVCIS,ioos:station:WAVCIS:CSI03:1,2008-12-10T13:00:00Z,29.4412,-92.0613,1011.26,11111222 
WAVCIS,ioos:station:WAVCIS:CSI03:1,2008-12-10T14:00:00Z,29.4412,-92.0613,1011.88,11111222 
WAVCIS,ioos:station:WAVCIS:CSI03:1,2008-12-10T15:00:00Z,29.4412,-92.0613,1013.04,11111222 
WAVCIS,ioos:station:WAVCIS:CSI03:1,2008-12-10T16:00:00Z,29.4412,-92.0613,1014.08,11111222 
WAVCIS,ioos:station:WAVCIS:CSI03:1,2008-12-10T17:00:00Z,29.4412,-92.0613,1013.47,11111222 
WAVCIS,ioos:station:WAVCIS:CSI03:1,2008-12-10T18:00:00Z,29.4412,-92.0613,1013.02,11111222 
WAVCIS,ioos:station:WAVCIS:CSI03:1,2008-12-10T19:00:00Z,29.4412,-92.0613,1011.76,11111222 
WAVCIS,ioos:station:WAVCIS:CSI03:1,2008-12-10T20:00:00Z,29.4412,-92.0613,1011.78,11111222 
WAVCIS,ioos:station:WAVCIS:CSI03:1,2008-12-10T21:00:00Z,29.4412,-92.0613,1012.85,11111222 
WAVCIS,ioos:station:WAVCIS:CSI03:1,2008-12-10T22:00:00Z,29.4412,-92.0613,1010.69,11111222 
WAVCIS,ioos:station:WAVCIS:CSI03:1,2008-12-10T23:00:00Z,29.4412,-92.0613,1011.75,11111222 
WAVCIS,ioos:station:WAVCIS:CSI03:1,2008-12-11T00:00:00Z,29.4412,-92.0613,1011.73,11111222 
WAVCIS,ioos:station:WAVCIS:CSI03:1,2008-12-11T01:00:00Z,29.4412,-92.0613,1013.51,11111222 
WAVCIS,ioos:station:WAVCIS:CSI03:1,2008-12-11T02:00:00Z,29.4412,-92.0613,1014.02,11111222 
WAVCIS,ioos:station:WAVCIS:CSI03:1,2008-12-11T03:00:00Z,29.4412,-92.0613,1012.53,11111222 
WAVCIS,ioos:station:WAVCIS:CSI03:1,2008-12-11T04:00:00Z,29.4412,-92.0613,1012.41,11111222 
WAVCIS,ioos:station:WAVCIS:CSI03:1,2008-12-11T05:00:00Z,29.4412,-92.0613,1011.87,11111222 
WAVCIS,ioos:station:WAVCIS:CSI03:1,2008-12-11T06:00:00Z,29.4412,-92.0613,1012.06,11111222 
WAVCIS,ioos:station:WAVCIS:CSI03:1,2008-12-11T07:00:00Z,29.4412,-92.0613,1011.33,11111222 
WAVCIS,ioos:station:WAVCIS:CSI03:1,2008-12-11T08:00:00Z,29.4412,-92.0613,1010.99,11111222 
WAVCIS,ioos:station:WAVCIS:CSI03:1,2008-12-11T09:00:00Z,29.4412,-92.0613,1010.89,11111222 
WAVCIS,ioos:station:WAVCIS:CSI03:1,2008-12-11T10:00:00Z,29.4412,-92.0613,1010.15,11111222 
WAVCIS,ioos:station:WAVCIS:CSI03:1,2008-12-11T11:00:00Z,29.4412,-92.0613,1010.22,11111222 
WAVCIS,ioos:station:WAVCIS:CSI03:1,2008-12-11T12:00:00Z,29.4412,-92.0613,1010.46,11111222 
WAVCIS,ioos:station:WAVCIS:CSI03:1,2008-12-11T13:00:00Z,29.4412,-92.0613,1010.83,11111222 
WAVCIS,ioos:station:WAVCIS:CSI03:1,2008-12-11T14:00:00Z,29.4412,-92.0613,1011.28,11111222 
WAVCIS,ioos:station:WAVCIS:CSI03:1,2008-12-11T15:00:00Z,29.4412,-92.0613,1011.31,11111222 
WAVCIS,ioos:station:WAVCIS:CSI03:1,2008-12-11T16:00:00Z,29.4412,-92.0613,1011.68,11111222 
WAVCIS,ioos:station:WAVCIS:CSI03:1,2008-12-11T17:00:00Z,29.4412,-92.0613,1011.63,11111222 
WAVCIS,ioos:station:WAVCIS:CSI03:1,2008-12-11T18:00:00Z,29.4412,-92.0613,1011.17,11111222 
WAVCIS,ioos:station:WAVCIS:CSI03:1,2008-12-11T19:00:00Z,29.4412,-92.0613,1010.69,11111222 
WAVCIS,ioos:station:WAVCIS:CSI03:1,2008-12-11T20:00:00Z,29.4412,-92.0613,1011.19,11111222 
WAVCIS,ioos:station:WAVCIS:CSI03:1,2008-12-11T21:00:00Z,29.4412,-92.0613,1011.77,11111222 
WAVCIS,ioos:station:WAVCIS:CSI03:1,2008-12-11T22:00:00Z,29.4412,-92.0613,1012.23,11111222 